Weather History for West Palm Beach, FL

Change the Weather History Date:

Tuesday, August 5, 2014

  Actual Average Record
Temperature  
Mean Temperature 84 °F 83 °F  
Max Temperature 92 °F 91 °F 96 °F (1970)
Min Temperature 76 °F 76 °F 68 °F (1936)
Degree Days  
Heating Degree Days 0 0  
Month to date heating degree days 0 0  
Since 1 June heating degree days 0 0  
Since 1 July heating degree days 0 0  
Cooling Degree Days 19 18  
Month to date cooling degree days 92 90  
Year to date cooling degree days 2496 2238  
Since 1 June cooling degree days 1144 1129  
Growing Degree Days 33 (Base 50)    
Moisture  
Dew Point 74 °F    
Average Humidity 75    
Maximum Humidity 94    
Minimum Humidity 56    
Precipitation  
Precipitation 0.69 in 0.23 in 2.54 in (1936)
Month to date precipitation 3.31 1.11  
Year to date precipitation 36.74 33.88  
Snow  
Snow 0.00 in - - ()
Month to date snowfall 0.0  
Since 1 June snowfall 0.0  
Since 1 July snowfall 0.0  
Snow Depth 0.00 in    
Sea Level Pressure  
Sea Level Pressure 30.04 in    
Wind  
Wind Speed 7 mph (WSW)    
Max Wind Speed 33 mph    
Max Gust Speed 39 mph    
Visibility 9 miles    
Events Fog , Rain , Thunderstorm    
T = Trace of Precipitation, MM = Missing Value Source: NWS Daily Summary

Daily Weather History Graph

Daily Weather History Graph

Search for Another Location

Airport:

Trip Planner

Search our weather history database for the weather conditions in past years. The results will help you decide how hot, cold, wet, or windy it might be!

Date:

Astronomy

Aug. 05, 2014 Rise Set
Actual Time 6:47 AM EDT 8:05 PM EDT
Civil Twilight 6:22 AM EDT 8:29 PM EDT
Nautical Twilight 5:53 AM EDT 8:59 PM EDT
Astronomical Twilight 5:22 AM EDT 9:29 PM EDT
Moon 3:16 PM EDT (8/5) 1:33 AM EDT (8/5)
Length of Visible Light 14h 07m
Length of Day
13h 17m
Waxing Gibbous, 67% of the Moon is Illuminated
Aug 5
Waxing Gibbous
Aug 10
Full
Aug 17
Last Quarter
Aug 25
New
Sep 2
First Quarter

Hourly Weather History & Observations

Time (EDT) Temp. Heat Index Dew Point Humidity Pressure Visibility Wind Dir Wind Speed Gust Speed Precip Events Conditions
12:53 AM 75.9 °F - 73.9 °F 94% 30.00 in 10.0 mi SSW 10.4 mph - N/A   Overcast
1:48 AM 75.2 °F - 73.4 °F 94% 30.00 in 10.0 mi SW 9.2 mph - N/A   Overcast
1:53 AM 75.9 °F - 73.9 °F 94% 30.00 in 10.0 mi SW 9.2 mph - N/A   Overcast
2:53 AM 75.9 °F - 73.9 °F 94% 29.98 in 10.0 mi SW 8.1 mph - 0.00 in   Overcast
3:53 AM 75.9 °F - 73.0 °F 91% 29.98 in 10.0 mi SW 9.2 mph - N/A   Overcast
4:53 AM 75.9 °F - 73.9 °F 94% 29.97 in 10.0 mi SSW 4.6 mph - N/A   Overcast
5:53 AM 75.9 °F - 73.9 °F 94% 29.98 in 10.0 mi South 5.8 mph - N/A   Overcast
6:53 AM 75.9 °F - 73.9 °F 94% 30.01 in 10.0 mi SSW 6.9 mph - N/A   Mostly Cloudy
7:53 AM 78.1 °F - 73.9 °F 87% 30.03 in 10.0 mi SSW 8.1 mph - N/A   Mostly Cloudy
8:53 AM 82.0 °F 88.6 °F 75.0 °F 79% 30.06 in 10.0 mi SW 8.1 mph - N/A   Scattered Clouds
9:53 AM 84.9 °F 93.3 °F 75.0 °F 72% 30.06 in 10.0 mi SW 10.4 mph - N/A   Scattered Clouds
10:53 AM 87.1 °F 95.4 °F 73.9 °F 65% 30.07 in 10.0 mi WSW 8.1 mph - N/A   Scattered Clouds
11:53 AM 89.1 °F 98.0 °F 73.9 °F 61% 30.07 in 10.0 mi WSW 8.1 mph - N/A   Mostly Cloudy
12:53 PM 90.0 °F 97.9 °F 73.0 °F 57% 30.07 in 10.0 mi WSW 6.9 mph - N/A   Mostly Cloudy
1:53 PM 91.0 °F 100.4 °F 73.9 °F 57% 30.04 in 10.0 mi SSW 13.8 mph - N/A   Mostly Cloudy
2:08 PM 87.1 °F 94.5 °F 73.0 °F 63% 30.06 in 10.0 mi West 24.2 mph 31.1 mph N/A   Mostly Cloudy
2:22 PM 79.0 °F - 75.0 °F 88% 30.08 in 0.8 mi WSW 28.8 mph 38.0 mph 0.03 in Rain Heavy Rain
2:25 PM 78.1 °F - 75.0 °F 90% 30.09 in 0.2 mi SW 23.0 mph 38.0 mph 0.06 in Fog , Rain , Thunderstorm Heavy Thunderstorms and Rain
2:29 PM 75.9 °F - 73.0 °F 91% 30.07 in 0.2 mi SSW 17.3 mph 39.1 mph 0.33 in Fog , Rain , Thunderstorm Heavy Thunderstorms and Rain
2:40 PM 77.0 °F - 73.0 °F 88% 30.06 in 2.0 mi WSW 6.9 mph - 0.67 in Rain , Thunderstorm Heavy Thunderstorms and Rain
2:42 PM 77.0 °F - 73.9 °F 90% 30.06 in 3.0 mi WSW 6.9 mph - 0.68 in Rain , Thunderstorm Heavy Thunderstorms and Rain
2:53 PM 78.1 °F - 73.9 °F 87% 30.06 in 7.0 mi WSW 6.9 mph - 0.69 in Rain , Thunderstorm Light Thunderstorms and Rain
3:24 PM 82.9 °F 90.8 °F 75.9 °F 79% 30.06 in 10.0 mi WNW 8.1 mph - 0.00 in   Mostly Cloudy
3:53 PM 84.0 °F 91.9 °F 75.0 °F 74% 30.06 in 10.0 mi West 10.4 mph - 0.00 in   Mostly Cloudy
4:53 PM 84.0 °F 92.6 °F 75.9 °F 76% 30.04 in 10.0 mi West 6.9 mph - N/A   Mostly Cloudy
5:53 PM 86.0 °F 96.0 °F 75.9 °F 72% 30.03 in 10.0 mi West 3.5 mph - N/A   Mostly Cloudy
6:53 PM 86.0 °F 96.0 °F 75.9 °F 72% 30.03 in 10.0 mi West 3.5 mph - N/A   Mostly Cloudy
7:53 PM 84.0 °F 91.2 °F 73.9 °F 72% 30.04 in 10.0 mi WSW 3.5 mph - N/A   Mostly Cloudy
8:53 PM 82.9 °F 88.8 °F 73.0 °F 72% 30.04 in 10.0 mi SW 5.8 mph - N/A   Mostly Cloudy
9:53 PM 80.1 °F 84.5 °F 73.9 °F 81% 30.05 in 10.0 mi WSW 3.5 mph - N/A   Mostly Cloudy
10:53 PM 79.0 °F - 75.0 °F 88% 30.06 in 10.0 mi WNW 3.5 mph - N/A   Scattered Clouds
11:53 PM 80.1 °F 85.1 °F 75.0 °F 85% 30.06 in 10.0 mi Calm Calm - N/A   Mostly Cloudy